EJA250 KMSP-KAGS

Flight info

Callsign EJA250
Flight time 1h 58m
Altitude 41000
Route ZMBRO7 ODI RBS IIU J99 VXV SOT SUG/N0457F400 HRTWL IRQ CLUBB CADIE
Aircraft CL60/M-SBDE1E2E3FGHIJ1J4J5J7M3RWXYZ/LB1V1D1

Departure

Time 2026-05-05 00:55
Airport Minneapolis–Saint Paul International Airport / Wold–Chamberlain Field (KMSP)

Arrival

Time 2026-05-05 02:53
Airport Augusta Regional At Bush Field (KAGS)
Time Latitude Longitude Altitude Speed Heading
2026-05-05 00:30 44.87726 -93.21722 825 ft 0 kts 269°
2026-05-05 00:50 44.87726 -93.21729 824 ft 2 kts 274°
2026-05-05 00:50 44.87749 -93.21761 825 ft 8 kts 10°
2026-05-05 00:51 44.87772 -93.21670 824 ft 13 kts 95°
2026-05-05 00:51 44.87790 -93.21554 824 ft 9 kts 48°
2026-05-05 00:51 44.87806 -93.21460 824 ft 13 kts 121°
2026-05-05 00:51 44.87748 -93.21328 821 ft 17 kts 121°
2026-05-05 00:52 44.87678 -93.21169 821 ft 20 kts 122°
2026-05-05 00:52 44.87595 -93.20976 817 ft 23 kts 122°
2026-05-05 00:52 44.87511 -93.20780 814 ft 19 kts 123°
2026-05-05 00:52 44.87398 -93.20644 809 ft 21 kts 142°
2026-05-05 00:53 44.87361 -93.20582 807 ft 16 kts 122°
2026-05-05 00:53 44.87315 -93.20477 805 ft 19 kts 121°
2026-05-05 00:53 44.87258 -93.20345 803 ft 14 kts 121°
2026-05-05 00:53 44.87255 -93.20225 803 ft 10 kts 34°
2026-05-05 00:54 44.87310 -93.20177 804 ft 9 kts 31°
2026-05-05 00:54 44.87360 -93.20145 805 ft 6 kts 345°
2026-05-05 00:54 44.87396 -93.20219 806 ft 30 kts 302°
2026-05-05 00:54 44.87695 -93.20911 818 ft 129 kts 302°
2026-05-05 00:55 44.88200 -93.22066 1666 ft 146 kts 306°
2026-05-05 00:55 44.88774 -93.23325 2680 ft 168 kts 304°
2026-05-05 00:55 44.89433 -93.24803 3453 ft 193 kts 303°
2026-05-05 00:55 44.90138 -93.26450 4263 ft 207 kts 300°
2026-05-05 00:56 44.90483 -93.28410 5514 ft 224 kts 269°
2026-05-05 00:56 44.89846 -93.30521 6495 ft 259 kts 236°
2026-05-05 00:56 44.88370 -93.32146 7559 ft 288 kts 211°
2026-05-05 00:56 44.86438 -93.32680 9278 ft 296 kts 184°
2026-05-05 00:57 44.84426 -93.31860 10662 ft 318 kts 157°
2026-05-05 00:57 44.82575 -93.29839 11131 ft 362 kts 140°
2026-05-05 00:57 44.80724 -93.27178 11880 ft 387 kts 135°
2026-05-05 00:57 44.78904 -93.24300 12894 ft 400 kts 136°
2026-05-05 00:58 44.77018 -93.21310 14000 ft 408 kts 136°
2026-05-05 00:58 44.75130 -93.18323 15038 ft 416 kts 137°
2026-05-05 00:58 44.73194 -93.15266 15936 ft 426 kts 138°
2026-05-05 00:58 44.71192 -93.12107 16864 ft 434 kts 138°
2026-05-05 00:59 44.69166 -93.08913 17693 ft 443 kts 139°
2026-05-05 00:59 44.67089 -93.05642 18559 ft 449 kts 139°
2026-05-05 00:59 44.65011 -93.02370 19487 ft 453 kts 140°
2026-05-05 00:59 44.62889 -92.99033 20346 ft 458 kts 140°
2026-05-05 01:00 44.60747 -92.95668 21196 ft 463 kts 140°
2026-05-05 01:00 44.58610 -92.92315 22038 ft 466 kts 140°
2026-05-05 01:00 44.56444 -92.88921 22808 ft 470 kts 140°
2026-05-05 01:00 44.54225 -92.85449 23591 ft 474 kts 140°
2026-05-05 01:01 44.52031 -92.82018 24331 ft 478 kts 141°
2026-05-05 01:01 44.50528 -92.79670 24834 ft 480 kts 141°
2026-05-05 01:01 44.47543 -92.75017 25663 ft 487 kts 140°
2026-05-05 01:01 44.45430 -92.71209 26219 ft 504 kts 130°
2026-05-05 01:02 44.43618 -92.66991 26737 ft 512 kts 127°
2026-05-05 01:02 44.41790 -92.62698 27273 ft 515 kts 127°
2026-05-05 01:02 44.39936 -92.58357 27851 ft 518 kts 127°
2026-05-05 01:02 44.38084 -92.54028 28323 ft 522 kts 127°
2026-05-05 01:03 44.36211 -92.49657 28784 ft 526 kts 127°
2026-05-05 01:03 44.34347 -92.45319 29170 ft 531 kts 127°
2026-05-05 01:03 44.32421 -92.40839 29645 ft 532 kts 127°
2026-05-05 01:03 44.30526 -92.36437 30269 ft 530 kts 126°
2026-05-05 01:04 44.28642 -92.32069 30884 ft 528 kts 127°
2026-05-05 01:04 44.24883 -92.23367 32049 ft 522 kts 127°
2026-05-05 01:04 44.23014 -92.19054 32506 ft 522 kts 128°
2026-05-05 01:05 44.21133 -92.14719 32960 ft 521 kts 128°
2026-05-05 01:05 44.19236 -92.10357 33406 ft 521 kts 127°
2026-05-05 01:05 44.17375 -92.06084 33845 ft 520 kts 127°
2026-05-05 01:05 44.15498 -92.01782 34195 ft 522 kts 127°
2026-05-05 01:06 44.13623 -91.97492 34585 ft 522 kts 127°
2026-05-05 01:06 44.11719 -91.93139 34918 ft 521 kts 127°
2026-05-05 01:06 44.09827 -91.88821 35226 ft 520 kts 127°
2026-05-05 01:06 44.07956 -91.84557 35504 ft 518 kts 126°
2026-05-05 01:07 44.06089 -91.80309 35754 ft 517 kts 126°
2026-05-05 01:07 44.04217 -91.76057 36034 ft 515 kts 126°
2026-05-05 01:07 44.02361 -91.71845 36372 ft 512 kts 126°
2026-05-05 01:07 44.00511 -91.67655 36699 ft 511 kts 126°
2026-05-05 01:08 43.98642 -91.63427 37003 ft 510 kts 126°
2026-05-05 01:08 43.96805 -91.59280 37369 ft 507 kts 126°
2026-05-05 01:08 43.94975 -91.55153 37676 ft 506 kts 126°
2026-05-05 01:08 43.93068 -91.51045 37943 ft 503 kts 130°
2026-05-05 01:09 43.90899 -91.47282 38231 ft 496 kts 137°
2026-05-05 01:09 43.88456 -91.43933 38473 ft 490 kts 144°
2026-05-05 01:09 43.85799 -91.40976 38712 ft 486 kts 148°
2026-05-05 01:09 43.83141 -91.38169 38936 ft 485 kts 148°
2026-05-05 01:10 43.80458 -91.35332 39152 ft 486 kts 148°
2026-05-05 01:10 43.77770 -91.32492 39319 ft 486 kts 149°
2026-05-05 01:10 43.75086 -91.29661 39504 ft 485 kts 149°
2026-05-05 01:10 43.72433 -91.26865 39708 ft 484 kts 149°
2026-05-05 01:11 43.69756 -91.24046 39881 ft 483 kts 148°
2026-05-05 01:11 43.67081 -91.21235 40045 ft 483 kts 149°
2026-05-05 01:11 43.64398 -91.18417 40185 ft 483 kts 148°
2026-05-05 01:11 43.61709 -91.15596 40327 ft 483 kts 148°
2026-05-05 01:12 43.59050 -91.12811 40456 ft 483 kts 148°
2026-05-05 01:12 43.56392 -91.10029 40624 ft 481 kts 148°
2026-05-05 01:12 43.51035 -91.04435 40687 ft 486 kts 148°
2026-05-05 01:13 43.45599 -90.98772 40692 ft 491 kts 148°
2026-05-05 01:13 43.40151 -90.93107 40699 ft 493 kts 148°
2026-05-05 01:14 43.34661 -90.87412 40683 ft 494 kts 148°
2026-05-05 01:14 43.29178 -90.81735 40675 ft 493 kts 148°
2026-05-05 01:15 43.23701 -90.76078 40672 ft 491 kts 148°
2026-05-05 01:15 43.18248 -90.70458 40698 ft 491 kts 148°
2026-05-05 01:16 43.12787 -90.64846 40678 ft 491 kts 148°
2026-05-05 01:16 43.07352 -90.59272 40688 ft 491 kts 148°
2026-05-05 01:17 43.01893 -90.53685 40672 ft 491 kts 148°
2026-05-05 01:17 42.96396 -90.48074 40675 ft 490 kts 148°
2026-05-05 01:18 42.90918 -90.42494 40664 ft 490 kts 148°
2026-05-05 01:18 42.85451 -90.36937 40690 ft 489 kts 148°
2026-05-05 01:19 42.80011 -90.31422 40664 ft 489 kts 149°
2026-05-05 01:19 42.74563 -90.25909 40666 ft 488 kts 149°
2026-05-05 01:20 42.69119 -90.20412 40691 ft 487 kts 149°
2026-05-05 01:20 42.63672 -90.14928 40668 ft 488 kts 149°
2026-05-05 01:21 42.58230 -90.09458 40665 ft 487 kts 149°
2026-05-05 01:21 42.52759 -90.03972 40662 ft 487 kts 148°
2026-05-05 01:22 42.47307 -89.98517 40684 ft 486 kts 149°
2026-05-05 01:22 42.41877 -89.93096 40680 ft 485 kts 148°
2026-05-05 01:23 42.36432 -89.87674 40698 ft 486 kts 148°
2026-05-05 01:23 42.30976 -89.82251 40659 ft 487 kts 148°
2026-05-05 01:24 42.25550 -89.76869 40666 ft 485 kts 149°
2026-05-05 01:24 42.20094 -89.71470 40643 ft 484 kts 149°
2026-05-05 01:25 42.14655 -89.66099 40667 ft 484 kts 148°
2026-05-05 01:25 42.09210 -89.60735 40650 ft 485 kts 149°
2026-05-05 01:26 42.03787 -89.55404 40665 ft 485 kts 148°
2026-05-05 01:26 41.98331 -89.50053 40646 ft 486 kts 148°
2026-05-05 01:27 41.92857 -89.44694 40650 ft 486 kts 148°
2026-05-05 01:27 41.87401 -89.39364 40633 ft 485 kts 149°
2026-05-05 01:28 41.81957 -89.34058 40654 ft 485 kts 149°
2026-05-05 01:28 41.76468 -89.28719 40637 ft 484 kts 149°
2026-05-05 01:29 41.71022 -89.23434 40659 ft 485 kts 149°
2026-05-05 01:29 41.65559 -89.18144 40644 ft 485 kts 149°
2026-05-05 01:30 41.60108 -89.12876 40650 ft 486 kts 149°
2026-05-05 01:30 41.54634 -89.07597 40659 ft 485 kts 149°
2026-05-05 01:31 41.49186 -89.02354 40655 ft 483 kts 149°
2026-05-05 01:31 41.43721 -88.97108 40657 ft 483 kts 149°
2026-05-05 01:32 41.38290 -88.91904 40637 ft 482 kts 148°
2026-05-05 01:32 41.32858 -88.86710 40680 ft 482 kts 148°
2026-05-05 01:33 41.27399 -88.81502 40667 ft 483 kts 148°
2026-05-05 01:33 41.21932 -88.76296 40672 ft 481 kts 149°
2026-05-05 01:34 41.16520 -88.71154 40675 ft 479 kts 148°
2026-05-05 01:34 41.11095 -88.66010 40688 ft 479 kts 149°
2026-05-05 01:35 41.05695 -88.60900 40685 ft 477 kts 148°
2026-05-05 01:35 41.00286 -88.55793 40673 ft 477 kts 148°
2026-05-05 01:36 40.94865 -88.50685 40679 ft 479 kts 148°
2026-05-05 01:36 40.89462 -88.45604 40681 ft 477 kts 148°
2026-05-05 01:37 40.84060 -88.40535 40667 ft 476 kts 149°
2026-05-05 01:37 40.78677 -88.35493 40679 ft 474 kts 148°
2026-05-05 01:38 40.73284 -88.30454 40685 ft 473 kts 149°
2026-05-05 01:38 40.67894 -88.25426 40690 ft 473 kts 149°
2026-05-05 01:39 40.62528 -88.20431 40682 ft 473 kts 149°
2026-05-05 01:39 40.57134 -88.15313 40681 ft 476 kts 146°
2026-05-05 01:40 40.52040 -88.09741 40681 ft 477 kts 144°
2026-05-05 01:40 40.46921 -88.04139 40685 ft 478 kts 145°
2026-05-05 01:41 40.41782 -87.98532 40685 ft 479 kts 145°
2026-05-05 01:41 40.36645 -87.92943 40683 ft 479 kts 144°
2026-05-05 01:42 40.31472 -87.87328 40683 ft 479 kts 145°
2026-05-05 01:42 40.26341 -87.81771 40689 ft 480 kts 145°
2026-05-05 01:43 40.21139 -87.76150 40699 ft 481 kts 145°
2026-05-05 01:43 40.15946 -87.70553 40700 ft 483 kts 145°
2026-05-05 01:44 40.10760 -87.64976 40696 ft 484 kts 144°
2026-05-05 01:44 40.05510 -87.59340 40702 ft 486 kts 144°
2026-05-05 01:45 40.00274 -87.53732 40710 ft 487 kts 144°
2026-05-05 01:45 39.95039 -87.48136 40706 ft 487 kts 144°
2026-05-05 01:46 39.89770 -87.42516 40710 ft 489 kts 144°
2026-05-05 01:46 39.84482 -87.36888 40732 ft 490 kts 144°
2026-05-05 01:47 39.79217 -87.31297 40724 ft 490 kts 145°
2026-05-05 01:47 39.73931 -87.25693 40724 ft 491 kts 145°
2026-05-05 01:48 39.68611 -87.20067 40726 ft 492 kts 144°
2026-05-05 01:48 39.63274 -87.14433 40746 ft 494 kts 145°
2026-05-05 01:49 39.57947 -87.08822 40748 ft 496 kts 144°
2026-05-05 01:49 39.52596 -87.03197 40757 ft 496 kts 144°
2026-05-05 01:50 39.47198 -86.97535 40767 ft 496 kts 144°
2026-05-05 01:50 39.41853 -86.91939 40747 ft 496 kts 144°
2026-05-05 01:51 39.36447 -86.86291 40747 ft 497 kts 144°
2026-05-05 01:51 39.31079 -86.80695 40753 ft 496 kts 144°
2026-05-05 01:52 39.25671 -86.75067 40769 ft 496 kts 144°
2026-05-05 01:52 39.20298 -86.69488 40767 ft 497 kts 144°
2026-05-05 01:53 39.14887 -86.63882 40759 ft 497 kts 144°
2026-05-05 01:53 39.09500 -86.58312 40756 ft 497 kts 144°
2026-05-05 01:54 39.04102 -86.52741 40770 ft 497 kts 144°
2026-05-05 01:54 38.98709 -86.47186 40776 ft 496 kts 144°
2026-05-05 01:55 38.93332 -86.41659 40793 ft 495 kts 144°
2026-05-05 01:55 38.87933 -86.36121 40783 ft 496 kts 144°
2026-05-05 01:56 38.82550 -86.30610 40787 ft 495 kts 144°
2026-05-05 01:56 38.77155 -86.25098 40796 ft 494 kts 145°
2026-05-05 01:57 38.71780 -86.19617 40818 ft 494 kts 145°
2026-05-05 01:57 38.66409 -86.14150 40813 ft 493 kts 145°
2026-05-05 01:58 38.60988 -86.08644 40805 ft 493 kts 144°
2026-05-05 01:58 38.55640 -86.03224 40813 ft 493 kts 144°
2026-05-05 01:59 38.50226 -85.97746 40808 ft 492 kts 145°
2026-05-05 01:59 38.44868 -85.92336 40822 ft 491 kts 145°
2026-05-05 02:00 38.39473 -85.86900 40820 ft 491 kts 145°
2026-05-05 02:00 38.34108 -85.81504 40833 ft 492 kts 144°
2026-05-05 02:01 38.28735 -85.76112 40832 ft 492 kts 144°
2026-05-05 02:01 38.23343 -85.70709 40836 ft 493 kts 145°
2026-05-05 02:02 38.17962 -85.65329 40840 ft 492 kts 145°
2026-05-05 02:02 38.12561 -85.59939 40841 ft 492 kts 145°
2026-05-05 02:03 38.06935 -85.54967 40845 ft 488 kts 152°
2026-05-05 02:03 38.01174 -85.50433 40859 ft 489 kts 152°
2026-05-05 02:04 37.95414 -85.45899 40858 ft 489 kts 151°
2026-05-05 02:04 37.89611 -85.41338 40867 ft 490 kts 151°
2026-05-05 02:05 37.83783 -85.36762 40864 ft 490 kts 151°
2026-05-05 02:05 37.77990 -85.32219 40866 ft 489 kts 152°
2026-05-05 02:06 37.72207 -85.27692 40877 ft 489 kts 152°
2026-05-05 02:06 37.66410 -85.23164 40880 ft 489 kts 152°
2026-05-05 02:07 37.60579 -85.18616 40891 ft 490 kts 152°
2026-05-05 02:07 37.54752 -85.14078 40899 ft 490 kts 152°
2026-05-05 02:08 37.48960 -85.09577 40889 ft 491 kts 152°
2026-05-05 02:08 37.43091 -85.05022 40905 ft 492 kts 152°
2026-05-05 02:09 37.37266 -85.00513 40892 ft 493 kts 152°
2026-05-05 02:09 37.31353 -84.95941 40905 ft 493 kts 152°
2026-05-05 02:10 37.25528 -84.91446 40916 ft 492 kts 152°
2026-05-05 02:10 37.19716 -84.86970 40911 ft 493 kts 152°
2026-05-05 02:11 37.13851 -84.82461 40930 ft 494 kts 152°
2026-05-05 02:11 37.08013 -84.77982 40920 ft 494 kts 152°
2026-05-05 02:12 36.99188 -84.71225 40949 ft 495 kts 152°
2026-05-05 02:13 36.93300 -84.66727 40952 ft 496 kts 152°
2026-05-05 02:13 36.87434 -84.62254 40953 ft 497 kts 152°
2026-05-05 02:14 36.81549 -84.57776 40957 ft 496 kts 152°
2026-05-05 02:14 36.75631 -84.53279 40957 ft 497 kts 152°
2026-05-05 02:15 36.69713 -84.48792 40958 ft 496 kts 152°
2026-05-05 02:15 36.63770 -84.44293 40975 ft 497 kts 152°
2026-05-05 02:16 36.57851 -84.39821 40974 ft 497 kts 152°
2026-05-05 02:16 36.51947 -84.35368 40990 ft 498 kts 152°
2026-05-05 02:17 36.45996 -84.30888 40985 ft 497 kts 153°
2026-05-05 02:17 36.40046 -84.26415 40985 ft 498 kts 153°
2026-05-05 02:18 36.34074 -84.21936 40977 ft 499 kts 153°
2026-05-05 02:18 36.28115 -84.17474 40997 ft 499 kts 153°
2026-05-05 02:19 36.22155 -84.13018 40991 ft 499 kts 153°
2026-05-05 02:19 36.16193 -84.08569 40999 ft 499 kts 153°
2026-05-05 02:20 36.10205 -84.04110 40987 ft 500 kts 153°
2026-05-05 02:20 36.04248 -83.99680 40991 ft 501 kts 152°
2026-05-05 02:21 35.98608 -83.94521 41002 ft 506 kts 140°
2026-05-05 02:21 35.93908 -83.88037 40995 ft 510 kts 127°
2026-05-05 02:22 35.90380 -83.80463 41002 ft 511 kts 113°
2026-05-05 02:22 35.88221 -83.72215 40998 ft 509 kts 100°
2026-05-05 02:23 35.87020 -83.63577 40990 ft 508 kts 97°
2026-05-05 02:23 35.85861 -83.55017 41018 ft 507 kts 97°
2026-05-05 02:24 35.84687 -83.46390 41013 ft 507 kts 97°
2026-05-05 02:24 35.83511 -83.37788 41024 ft 506 kts 97°
2026-05-05 02:25 35.82336 -83.29247 41030 ft 506 kts 98°
2026-05-05 02:25 35.81154 -83.20692 41054 ft 505 kts 98°
2026-05-05 02:26 35.79966 -83.12157 41049 ft 505 kts 99°
2026-05-05 02:26 35.77988 -83.03818 41057 ft 506 kts 113°
2026-05-05 02:27 35.74647 -82.96226 41055 ft 505 kts 122°
2026-05-05 02:27 35.71051 -82.88830 41053 ft 505 kts 122°
2026-05-05 02:28 35.67433 -82.81398 41061 ft 506 kts 122°
2026-05-05 02:28 35.63808 -82.73967 41062 ft 505 kts 122°
2026-05-05 02:29 35.60170 -82.66524 41079 ft 505 kts 122°
2026-05-05 02:29 35.56530 -82.59096 41058 ft 506 kts 122°
2026-05-05 02:30 35.52907 -82.51714 41086 ft 504 kts 122°
2026-05-05 02:30 35.49266 -82.44321 40617 ft 511 kts 122°
2026-05-05 02:30 35.47281 -82.40762 40010 ft 508 kts 129°
2026-05-05 02:31 35.44990 -82.37458 39287 ft 506 kts 135°
2026-05-05 02:31 35.42441 -82.34505 38579 ft 502 kts 143°
2026-05-05 02:31 35.39732 -82.31976 37912 ft 496 kts 149°
2026-05-05 02:31 35.36824 -82.29797 37200 ft 489 kts 156°
2026-05-05 02:32 35.33783 -82.27982 36659 ft 477 kts 161°
2026-05-05 02:32 35.30703 -82.26550 36203 ft 466 kts 167°
2026-05-05 02:32 35.27604 -82.25481 35713 ft 459 kts 172°
2026-05-05 02:32 35.24473 -82.24760 35118 ft 455 kts 177°
2026-05-05 02:33 35.21370 -82.24337 34505 ft 452 kts 179°
2026-05-05 02:33 35.18225 -82.23959 33841 ft 450 kts 179°
2026-05-05 02:33 35.15115 -82.23581 33247 ft 451 kts 179°
2026-05-05 02:33 35.11953 -82.23199 32637 ft 453 kts 179°
2026-05-05 02:34 35.08841 -82.22823 32091 ft 454 kts 179°
2026-05-05 02:34 35.05657 -82.22437 31597 ft 456 kts 179°
2026-05-05 02:34 35.02496 -82.22056 31099 ft 458 kts 178°
2026-05-05 02:34 34.99297 -82.21670 30596 ft 459 kts 178°
2026-05-05 02:35 34.96120 -82.21287 30109 ft 461 kts 178°
2026-05-05 02:35 34.92928 -82.20902 29621 ft 462 kts 178°
2026-05-05 02:35 34.89699 -82.20513 29117 ft 463 kts 178°
2026-05-05 02:35 34.86459 -82.20122 28620 ft 460 kts 178°
2026-05-05 02:36 34.83283 -82.19740 28125 ft 457 kts 178°
2026-05-05 02:36 34.80104 -82.19357 27626 ft 453 kts 178°
2026-05-05 02:36 34.76980 -82.18980 27131 ft 450 kts 178°
2026-05-05 02:36 34.73898 -82.18610 26638 ft 446 kts 178°
2026-05-05 02:37 34.70819 -82.18241 26141 ft 442 kts 178°
2026-05-05 02:37 34.67748 -82.17873 25640 ft 439 kts 178°
2026-05-05 02:37 34.64728 -82.17511 25140 ft 435 kts 178°
2026-05-05 02:37 34.61688 -82.17147 24599 ft 432 kts 178°
2026-05-05 02:38 34.58975 -82.16824 24191 ft 426 kts 178°
2026-05-05 02:38 34.56049 -82.16473 24058 ft 425 kts 178°
2026-05-05 02:38 34.53095 -82.16121 24038 ft 424 kts 177°
2026-05-05 02:38 34.50100 -82.15766 23561 ft 430 kts 177°
2026-05-05 02:39 34.47151 -82.15414 22941 ft 424 kts 177°
2026-05-05 02:39 34.44233 -82.15066 22311 ft 417 kts 177°
2026-05-05 02:39 34.41348 -82.14722 21691 ft 412 kts 177°
2026-05-05 02:39 34.38497 -82.14383 21066 ft 407 kts 177°
2026-05-05 02:40 34.35689 -82.14049 20448 ft 403 kts 177°
2026-05-05 02:40 34.32921 -82.13720 19830 ft 400 kts 177°
2026-05-05 02:40 34.30134 -82.13389 19196 ft 395 kts 177°
2026-05-05 02:40 34.27433 -82.13068 18580 ft 391 kts 177°
2026-05-05 02:41 34.24697 -82.12744 17948 ft 387 kts 177°
2026-05-05 02:41 34.22056 -82.12431 17330 ft 383 kts 177°
2026-05-05 02:41 34.19392 -82.12116 16702 ft 380 kts 177°
2026-05-05 02:41 34.16762 -82.11806 16079 ft 377 kts 176°
2026-05-05 02:42 34.14150 -82.11498 15458 ft 374 kts 176°
2026-05-05 02:42 34.11589 -82.11195 14832 ft 371 kts 176°
2026-05-05 02:42 34.08998 -82.10889 14196 ft 368 kts 176°
2026-05-05 02:42 34.06476 -82.10588 13575 ft 363 kts 175°
2026-05-05 02:43 34.03998 -82.10191 12949 ft 356 kts 173°
2026-05-05 02:43 34.01559 -82.09770 12428 ft 347 kts 173°
2026-05-05 02:43 33.99195 -82.09364 11974 ft 337 kts 173°
2026-05-05 02:43 33.96911 -82.08973 11527 ft 328 kts 173°
2026-05-05 02:44 33.94680 -82.08591 11103 ft 319 kts 173°
2026-05-05 02:44 33.92501 -82.08220 10677 ft 312 kts 173°
2026-05-05 02:44 33.90370 -82.07857 10280 ft 305 kts 173°
2026-05-05 02:44 33.88275 -82.07501 9865 ft 299 kts 173°
2026-05-05 02:45 33.86227 -82.07153 9475 ft 293 kts 173°
2026-05-05 02:45 33.84239 -82.06815 9094 ft 287 kts 173°
2026-05-05 02:45 33.82254 -82.06479 8710 ft 282 kts 173°
2026-05-05 02:45 33.80339 -82.06155 8345 ft 277 kts 173°
2026-05-05 02:46 33.78445 -82.05834 7975 ft 272 kts 173°
2026-05-05 02:46 33.76575 -82.05518 7618 ft 270 kts 173°
2026-05-05 02:46 33.74693 -82.05200 7258 ft 270 kts 173°
2026-05-05 02:46 33.72852 -82.04890 6907 ft 269 kts 173°
2026-05-05 02:47 33.70983 -82.04575 6542 ft 267 kts 173°
2026-05-05 02:47 33.69156 -82.04267 6197 ft 266 kts 174°
2026-05-05 02:47 33.67319 -82.03957 5839 ft 264 kts 174°
2026-05-05 02:47 33.65495 -82.03651 5498 ft 262 kts 173°
2026-05-05 02:48 33.63693 -82.03348 5134 ft 262 kts 173°
2026-05-05 02:48 33.61897 -82.02965 4808 ft 259 kts 170°
2026-05-05 02:48 33.60131 -82.02527 4468 ft 259 kts 170°
2026-05-05 02:48 33.58344 -82.02082 4089 ft 258 kts 170°
2026-05-05 02:49 33.56616 -82.01655 3734 ft 255 kts 170°
2026-05-05 02:49 33.54878 -82.01221 3396 ft 251 kts 169°
2026-05-05 02:49 33.53171 -82.00797 2950 ft 248 kts 170°
2026-05-05 02:49 33.51523 -82.00386 2624 ft 236 kts 170°
2026-05-05 02:50 33.49948 -81.99993 2413 ft 222 kts 170°
2026-05-05 02:50 33.48475 -81.99626 2157 ft 211 kts 170°
2026-05-05 02:50 33.47136 -81.99292 1877 ft 180 kts 170°
2026-05-05 02:50 33.45995 -81.99005 1714 ft 156 kts 170°
2026-05-05 02:51 33.44987 -81.98754 1509 ft 134 kts 170°
2026-05-05 02:51 33.44136 -81.98543 1339 ft 117 kts 169°
2026-05-05 02:51 33.43370 -81.98352 1189 ft 108 kts 169°
2026-05-05 02:51 33.42620 -81.98164 1045 ft 110 kts 168°
2026-05-05 02:52 33.41864 -81.97974 891 ft 110 kts 168°
2026-05-05 02:52 33.41099 -81.97783 747 ft 111 kts 168°
2026-05-05 02:52 33.40341 -81.97596 603 ft 112 kts 168°
2026-05-05 02:52 33.39566 -81.97407 461 ft 112 kts 169°
2026-05-05 02:53 33.38799 -81.97220 298 ft 113 kts 168°
2026-05-05 02:53 33.38023 -81.97030 155 ft 111 kts 167°
2026-05-05 02:53 33.37377 -81.96870 144 ft 66 kts 169°
2026-05-05 02:53 33.37050 -81.96787 142 ft 40 kts 168°
2026-05-05 02:54 33.36804 -81.96726 141 ft 22 kts 169°
2026-05-05 02:54 33.36735 -81.96746 141 ft 11 kts 258°
2026-05-05 02:54 33.36724 -81.96815 141 ft 8 kts 268°
2026-05-05 02:54 33.36784 -81.96856 141 ft 13 kts 348°
2026-05-05 02:55 33.36890 -81.96882 142 ft 17 kts 348°
2026-05-05 02:55 33.37024 -81.96915 142 ft 21 kts 348°
2026-05-05 02:55 33.37087 -81.96971 143 ft 9 kts 268°
2026-05-05 02:55 33.37105 -81.97038 144 ft 10 kts 344°
2026-05-05 02:56 33.37184 -81.97066 144 ft 10 kts 316°
2026-05-05 02:56 33.37188 -81.97136 144 ft 5 kts 256°
2026-05-05 02:56 33.37180 -81.97173 144 ft 2 kts 255°
2026-05-05 02:56 33.37180 -81.97175 144 ft 0 kts 255°